#Datum;Uhrzeit;WR;Pac;DaySum;Status;WR;Pac;DaySum;Status;Pdc1;Udc;Temp;WR;Pac;DaySum;Status;Pdc1;Udc;Temp;WR;Pac;DaySum;Status;Pdc1;Udc;Temp;WR;Pac;DaySum;Status;Pdc1;Pdc2;Udc1;Udc2;Temp;WR;Pac;DaySum;Status;Pdc1;Pdc2;Udc1;Udc2;Temp;WR;Pac;DaySum;Status;Pdc1;Udc;Temp;WR;Pac;DaySum;Status;Pdc1;Udc;Temp;WR;Pac;DaySum;Status;Pdc1;Udc;Temp
30.01.19;23:55:00;1;355;17963;0;2;0;9136;0;0;0;0;3;0;5948;0;0;0;0;4;0;6726;0;0;0;0;5;0;25659;0;0;0;0;0;0;6;0;19598;0;0;0;0;0;0;7;0;15086;0;0;0;0;8;0;14844;0;0;0;0;9;0;8130;0;0;0;0
30.01.19;23:50:00;1;364;17934;0;2;0;9136;0;0;0;0;3;0;5948;0;0;0;0;4;0;6726;0;0;0;0;5;0;25659;0;0;0;0;0;0;6;0;19598;0;0;0;0;0;0;7;0;15086;0;0;0;0;8;0;14844;0;0;0;0;9;0;8130;0;0;0;0
30.01.19;23:45:00;1;538;17903;0;2;0;9136;0;0;0;0;3;0;5948;0;0;0;0;4;0;6726;0;0;0;0;5;0;25659;0;0;0;0;0;0;6;0;19598;0;0;0;0;0;0;7;0;15086;0;0;0;0;8;0;14844;0;0;0;0;9;0;8130;0;0;0;0
30.01.19;23:40:00;1;385;17849;0;2;0;9136;0;0;0;0;3;0;5948;0;0;0;0;4;0;6726;0;0;0;0;5;0;25659;0;0;0;0;0;0;6;0;19598;0;0;0;0;0;0;7;0;15086;0;0;0;0;8;0;14844;0;0;0;0;9;0;8130;0;0;0;0
30.01.19;23:35:00;1;404;17817;0;2;0;9136;0;0;0;0;3;0;5948;0;0;0;0;4;0;6726;0;0;0;0;5;0;25659;0;0;0;0;0;0;6;0;19598;0;0;0;0;0;0;7;0;15086;0;0;0;0;8;0;14844;0;0;0;0;9;0;8130;0;0;0;0
30.01.19;23:30:00;1;403;17783;0;2;0;9136;0;0;0;0;3;0;5948;0;0;0;0;4;0;6726;0;0;0;0;5;0;25659;0;0;0;0;0;0;6;0;19598;0;0;0;0;0;0;7;0;15086;0;0;0;0;8;0;14844;0;0;0;0;9;0;8130;0;0;0;0
30.01.19;23:25:00;1;405;17750;0;2;0;9136;0;0;0;0;3;0;5948;0;0;0;0;4;0;6726;0;0;0;0;5;0;25659;0;0;0;0;0;0;6;0;19598;0;0;0;0;0;0;7;0;15086;0;0;0;0;8;0;14844;0;0;0;0;9;0;8130;0;0;0;0
30.01.19;23:20:00;1;593;17716;0;2;0;9136;0;0;0;0;3;0;5948;0;0;0;0;4;0;6726;0;0;0;0;5;0;25659;0;0;0;0;0;0;6;0;19598;0;0;0;0;0;0;7;0;15086;0;0;0;0;8;0;14844;0;0;0;0;9;0;8130;0;0;0;0
30.01.19;23:15:00;1;396;17658;0;2;0;9136;0;0;0;0;3;0;5948;0;0;0;0;4;0;6726;0;0;0;0;5;0;25659;0;0;0;0;0;0;6;0;19598;0;0;0;0;0;0;7;0;15086;0;0;0;0;8;0;14844;0;0;0;0;9;0;8130;0;0;0;0
30.01.19;23:10:00;1;406;17626;0;2;0;9136;0;0;0;0;3;0;5948;0;0;0;0;4;0;6726;0;0;0;0;5;0;25659;0;0;0;0;0;0;6;0;19598;0;0;0;0;0;0;7;0;15086;0;0;0;0;8;0;14844;0;0;0;0;9;0;8130;0;0;0;0
30.01.19;23:05:00;1;349;17592;0;2;0;9136;0;0;0;0;3;0;5948;0;0;0;0;4;0;6726;0;0;0;0;5;0;25659;0;0;0;0;0;0;6;0;19598;0;0;0;0;0;0;7;0;15086;0;0;0;0;8;0;14844;0;0;0;0;9;0;8130;0;0;0;0
30.01.19;23:00:00;1;726;17563;0;2;0;9136;0;0;0;0;3;0;5948;0;0;0;0;4;0;6726;0;0;0;0;5;0;25659;0;0;0;0;0;0;6;0;19598;0;0;0;0;0;0;7;0;15086;0;0;0;0;8;0;14844;0;0;0;0;9;0;8130;0;0;0;0
30.01.19;22:55:00;1;352;17507;0;2;0;9136;0;0;0;0;3;0;5948;0;0;0;0;4;0;6726;0;0;0;0;5;0;25659;2;0;0;0;0;0;6;0;19598;2;0;0;0;0;0;7;0;15086;0;0;0;0;8;0;14844;0;0;0;0;9;0;8130;0;0;0;0
30.01.19;22:50:00;1;442;17478;0;2;0;9136;0;0;0;0;3;0;5948;0;0;0;0;4;0;6726;0;0;0;0;5;0;25659;2;0;0;0;0;0;6;0;19598;2;0;0;0;0;0;7;0;15086;0;0;0;0;8;0;14844;0;0;0;0;9;0;8130;0;0;0;0
30.01.19;22:45:00;1;352;17448;0;2;0;9136;0;0;0;0;3;0;5948;0;0;0;0;4;0;6726;0;0;0;0;5;0;25659;2;0;0;0;0;0;6;0;19598;2;0;0;0;0;0;7;0;15086;0;0;0;0;8;0;14844;0;0;0;0;9;0;8130;0;0;0;0
30.01.19;22:40:00;1;594;17419;0;2;0;9136;0;0;0;0;3;0;5948;0;0;0;0;4;0;6726;0;0;0;0;5;0;25659;2;0;0;0;0;0;6;0;19598;2;0;0;0;0;0;7;0;15086;0;0;0;0;8;0;14844;0;0;0;0;9;0;8130;0;0;0;0
30.01.19;22:35:00;1;2361;17338;0;2;0;9136;0;0;0;0;3;0;5948;0;0;0;0;4;0;6726;0;0;0;0;5;0;25659;2;0;0;0;0;0;6;0;19598;2;0;0;0;0;0;7;0;15086;0;0;0;0;8;0;14844;0;0;0;0;9;0;8130;0;0;0;0
30.01.19;22:30:00;1;2212;17132;0;2;0;9136;0;0;0;0;3;0;5948;0;0;0;0;4;0;6726;0;0;0;0;5;0;25659;2;0;0;0;0;0;6;0;19598;2;0;0;0;0;0;7;0;15086;0;0;0;0;8;0;14844;0;0;0;0;9;0;8130;0;0;0;0
30.01.19;22:25:00;1;1960;16948;0;2;0;9136;0;0;0;0;3;0;5948;0;0;0;0;4;0;6726;0;0;0;0;5;0;25659;2;0;0;0;0;0;6;0;19598;2;0;0;0;0;0;7;0;15086;0;0;0;0;8;0;14844;0;0;0;0;9;0;8130;0;0;0;0
30.01.19;22:20:00;1;1559;16814;0;2;0;9136;0;0;0;0;3;0;5948;0;0;0;0;4;0;6726;0;0;0;0;5;0;25659;2;0;0;0;0;0;6;0;19598;2;0;0;0;0;0;7;0;15086;0;0;0;0;8;0;14844;0;0;0;0;9;0;8130;0;0;0;0
30.01.19;22:15:00;1;909;16684;0;2;0;9136;0;0;0;0;3;0;5948;0;0;0;0;4;0;6726;0;0;0;0;5;0;25659;2;0;0;0;0;0;6;0;19598;2;0;0;0;0;0;7;0;15086;0;0;0;0;8;0;14844;0;0;0;0;9;0;8130;0;0;0;0
30.01.19;22:10:00;1;507;16615;0;2;0;9136;0;0;0;0;3;0;5948;0;0;0;0;4;0;6726;0;0;0;0;5;0;25659;2;0;0;0;0;0;6;0;19598;2;0;0;0;0;0;7;0;15086;0;0;0;0;8;0;14844;0;0;0;0;9;0;8130;0;0;0;0
30.01.19;22:05:00;1;998;16573;0;2;0;9136;0;0;0;0;3;0;5948;0;0;0;0;4;0;6726;0;0;0;0;5;0;25659;2;0;0;0;0;0;6;0;19598;2;0;0;0;0;0;7;0;15086;0;0;0;0;8;0;14844;0;0;0;0;9;0;8130;0;0;0;0
30.01.19;22:00:00;1;2127;16460;0;2;0;9136;0;0;0;0;3;0;5948;0;0;0;0;4;0;6726;0;0;0;0;5;0;25659;2;0;0;0;0;0;6;0;19598;2;0;0;0;0;0;7;0;15086;0;0;0;0;8;0;14844;0;0;0;0;9;0;8130;0;0;0;0
30.01.19;21:55:00;1;513;16312;0;2;0;9136;0;0;0;0;3;0;5948;0;0;0;0;4;0;6726;0;0;0;0;5;0;25659;2;0;0;0;0;0;6;0;19598;2;0;0;0;0;0;7;0;15086;0;0;0;0;8;0;14844;0;0;0;0;9;0;8130;0;0;0;0
30.01.19;21:50:00;1;2742;16239;0;2;0;9136;0;0;0;0;3;0;5948;0;0;0;0;4;0;6726;0;0;0;0;5;0;25659;2;0;0;0;0;0;6;0;19598;2;0;0;0;0;0;7;0;15086;0;0;0;0;8;0;14844;0;0;0;0;9;0;8130;0;0;0;0
30.01.19;21:45:00;1;1285;16027;0;2;0;9136;0;0;0;0;3;0;5948;0;0;0;0;4;0;6726;0;0;0;0;5;0;25659;2;0;0;0;0;0;6;0;19598;2;0;0;0;0;0;7;0;15086;0;0;0;0;8;0;14844;0;0;0;0;9;0;8130;0;0;0;0
30.01.19;21:40:00;1;1249;15927;0;2;0;9136;0;0;0;0;3;0;5948;0;0;0;0;4;0;6726;0;0;0;0;5;0;25659;2;0;0;0;0;0;6;0;19598;2;0;0;0;0;0;7;0;15086;0;0;0;0;8;0;14844;0;0;0;0;9;0;8130;0;0;0;0
30.01.19;21:35:00;1;2534;15801;0;2;0;9136;0;0;0;0;3;0;5948;0;0;0;0;4;0;6726;0;0;0;0;5;0;25659;2;0;0;0;0;0;6;0;19598;2;0;0;0;0;0;7;0;15086;0;0;0;0;8;0;14844;0;0;0;0;9;0;8130;0;0;0;0
30.01.19;21:30:00;1;2790;15587;0;2;0;9136;0;0;0;0;3;0;5948;0;0;0;0;4;0;6726;0;0;0;0;5;0;25659;2;0;0;0;0;0;6;0;19598;2;0;0;0;0;0;7;0;15086;0;0;0;0;8;0;14844;0;0;0;0;9;0;8130;0;0;0;0
30.01.19;21:25:00;1;780;15401;0;2;0;9136;0;0;0;0;3;0;5948;0;0;0;0;4;0;6726;0;0;0;0;5;0;25659;2;0;0;0;0;0;6;0;19598;2;0;0;0;0;0;7;0;15086;0;0;0;0;8;0;14844;0;0;0;0;9;0;8130;0;0;0;0
30.01.19;21:20:00;1;1069;15321;0;2;0;9136;0;0;0;0;3;0;5948;0;0;0;0;4;0;6726;0;0;0;0;5;0;25659;2;0;0;0;0;0;6;0;19598;2;0;0;0;0;0;7;0;15086;0;0;0;0;8;0;14844;0;0;0;0;9;0;8130;0;0;0;0
30.01.19;21:15:00;1;738;15230;0;2;0;9136;0;0;0;0;3;0;5948;0;0;0;0;4;0;6726;0;0;0;0;5;0;25659;2;0;0;0;0;0;6;0;19598;2;0;0;0;0;0;7;0;15086;0;0;0;0;8;0;14844;0;0;0;0;9;0;8130;0;0;0;0
30.01.19;21:10:00;1;943;15167;0;2;0;9136;0;0;0;0;3;0;5948;0;0;0;0;4;0;6726;0;0;0;0;5;0;25659;2;0;0;0;0;0;6;0;19598;2;0;0;0;0;0;7;0;15086;0;0;0;0;8;0;14844;0;0;0;0;9;0;8130;0;0;0;0
30.01.19;21:05:00;1;1418;15089;0;2;0;9136;0;0;0;0;3;0;5948;0;0;0;0;4;0;6726;0;0;0;0;5;0;25659;2;0;0;0;0;0;6;0;19598;2;0;0;0;0;0;7;0;15086;0;0;0;0;8;0;14844;0;0;0;0;9;0;8130;0;0;0;0
30.01.19;21:00:00;1;935;14986;0;2;0;9136;0;0;0;0;3;0;5948;0;0;0;0;4;0;6726;0;0;0;0;5;0;25659;2;0;0;0;0;0;6;0;19598;2;0;0;0;0;0;7;0;15086;0;0;0;0;8;0;14844;0;0;0;0;9;0;8130;0;0;0;0
30.01.19;20:55:00;1;906;14908;0;2;0;9136;0;0;0;0;3;0;5948;0;0;0;0;4;0;6726;0;0;0;0;5;0;25659;2;0;0;0;0;0;6;0;19598;2;0;0;0;0;0;7;0;15086;0;0;0;0;8;0;14844;0;0;0;0;9;0;8130;0;0;0;0
30.01.19;20:50:00;1;861;14832;0;2;0;9136;0;0;0;0;3;0;5948;0;0;0;0;4;0;6726;0;0;0;0;5;0;25659;2;0;0;0;0;0;6;0;19598;2;0;0;0;0;0;7;0;15086;0;0;0;0;8;0;14844;0;0;0;0;9;0;8130;0;0;0;0
30.01.19;20:45:00;1;838;14760;0;2;0;9136;0;0;0;0;3;0;5948;0;0;0;0;4;0;6726;0;0;0;0;5;0;25659;2;0;0;0;0;0;6;0;19598;2;0;0;0;0;0;7;0;15086;0;0;0;0;8;0;14844;0;0;0;0;9;0;8130;0;0;0;0
30.01.19;20:40:00;1;1320;14674;0;2;0;9136;0;0;0;0;3;0;5948;0;0;0;0;4;0;6726;0;0;0;0;5;0;25659;2;0;0;0;0;0;6;0;19598;2;0;0;0;0;0;7;0;15086;0;0;0;0;8;0;14844;0;0;0;0;9;0;8130;0;0;0;0
30.01.19;20:35:00;1;959;14568;0;2;0;9136;0;0;0;0;3;0;5948;0;0;0;0;4;0;6726;0;0;0;0;5;0;25659;2;0;0;0;0;0;6;0;19598;2;0;0;0;0;0;7;0;15086;0;0;0;0;8;0;14844;0;0;0;0;9;0;8130;0;0;0;0
30.01.19;20:30:00;1;968;14490;0;2;0;9136;0;0;0;0;3;0;5948;0;0;0;0;4;0;6726;0;0;0;0;5;0;25659;2;0;0;0;0;0;6;0;19598;2;0;0;0;0;0;7;0;15086;0;0;0;0;8;0;14844;0;0;0;0;9;0;8130;0;0;0;0
30.01.19;20:25:00;1;929;14407;0;2;0;9136;0;0;0;0;3;0;5948;0;0;0;0;4;0;6726;0;0;0;0;5;0;25659;2;0;0;0;0;0;6;0;19598;2;0;0;0;0;0;7;0;15086;0;0;0;0;8;0;14844;0;0;0;0;9;0;8130;0;0;0;0
30.01.19;20:20:00;1;1133;14328;0;2;0;9136;0;0;0;0;3;0;5948;0;0;0;0;4;0;6726;0;0;0;0;5;0;25659;2;0;0;0;0;0;6;0;19598;2;0;0;0;0;0;7;0;15086;0;0;0;0;8;0;14844;0;0;0;0;9;0;8130;0;0;0;0
30.01.19;20:15:00;1;1123;14218;0;2;0;9136;0;0;0;0;3;0;5948;0;0;0;0;4;0;6726;0;0;0;0;5;0;25659;2;0;0;0;0;0;6;0;19598;2;0;0;0;0;0;7;0;15086;0;0;0;0;8;0;14844;0;0;0;0;9;0;8130;0;0;0;0
30.01.19;20:10:00;1;979;14126;0;2;0;9136;0;0;0;0;3;0;5948;0;0;0;0;4;0;6726;0;0;0;0;5;0;25659;2;0;0;0;0;0;6;0;19598;2;0;0;0;0;0;7;0;15086;0;0;0;0;8;0;14844;0;0;0;0;9;0;8130;0;0;0;0
30.01.19;20:05:00;1;996;14043;0;2;0;9136;0;0;0;0;3;0;5948;0;0;0;0;4;0;6726;0;0;0;0;5;0;25659;2;0;0;0;0;0;6;0;19598;2;0;0;0;0;0;7;0;15086;0;0;0;0;8;0;14844;0;0;0;0;9;0;8130;0;0;0;0
30.01.19;20:00:00;1;1265;13956;0;2;0;9136;0;0;0;0;3;0;5948;0;0;0;0;4;0;6726;0;0;0;0;5;0;25659;2;0;0;0;0;0;6;0;19598;2;0;0;0;0;0;7;0;15086;0;0;0;0;8;0;14844;0;0;0;0;9;0;8130;0;0;0;0
30.01.19;19:55:00;1;1082;13839;0;2;0;9136;0;0;0;0;3;0;5948;0;0;0;0;4;0;6726;0;0;0;0;5;0;25659;2;0;0;0;0;0;6;0;19598;2;0;0;0;0;0;7;0;15086;0;0;0;0;8;0;14844;0;0;0;0;9;0;8130;0;0;0;0
30.01.19;19:50:00;1;1230;13744;0;2;0;9136;0;0;0;0;3;0;5948;0;0;0;0;4;0;6726;0;0;0;0;5;0;25659;2;0;0;0;0;0;6;0;19598;2;0;0;0;0;0;7;0;15086;0;0;0;0;8;0;14844;0;0;0;0;9;0;8130;0;0;0;0
30.01.19;19:45:00;1;1324;13643;0;2;0;9136;0;0;0;0;3;0;5948;0;0;0;0;4;0;6726;0;0;0;0;5;0;25659;2;0;0;0;0;0;6;0;19598;2;0;0;0;0;0;7;0;15086;0;0;0;0;8;0;14844;0;0;0;0;9;0;8130;0;0;0;0
30.01.19;19:40:00;1;1116;13524;0;2;0;9136;0;0;0;0;3;0;5948;0;0;0;0;4;0;6726;0;0;0;0;5;0;25659;2;0;0;0;0;0;6;0;19598;2;0;0;0;0;0;7;0;15086;0;0;0;0;8;0;14844;0;0;0;0;9;0;8130;0;0;0;0
30.01.19;19:35:00;1;1185;13409;0;2;0;9136;0;0;0;0;3;0;5948;0;0;0;0;4;0;6726;0;0;0;0;5;0;25659;2;0;0;0;0;0;6;0;19598;2;0;0;0;0;0;7;0;15086;0;0;0;0;8;0;14844;0;0;0;0;9;0;8130;0;0;0;0
30.01.19;19:30:00;1;1104;13314;0;2;0;9136;0;0;0;0;3;0;5948;0;0;0;0;4;0;6726;0;0;0;0;5;0;25659;2;0;0;0;0;0;6;0;19598;2;0;0;0;0;0;7;0;15086;0;0;0;0;8;0;14844;0;0;0;0;9;0;8130;0;0;0;0
30.01.19;19:25:00;1;1340;13222;0;2;0;9136;0;0;0;0;3;0;5948;0;0;0;0;4;0;6726;0;0;0;0;5;0;25659;2;0;0;0;0;0;6;0;19598;2;0;0;0;0;0;7;0;15086;0;0;0;0;8;0;14844;0;0;0;0;9;0;8130;0;0;0;0
30.01.19;19:20:00;1;1100;13096;0;2;0;9136;0;0;0;0;3;0;5948;0;0;0;0;4;0;6726;0;0;0;0;5;0;25659;2;0;0;0;0;0;6;0;19598;2;0;0;0;0;0;7;0;15086;0;0;0;0;8;0;14844;0;0;0;0;9;0;8130;0;0;0;0
30.01.19;19:15:00;1;1188;12980;0;2;0;9136;0;0;0;0;3;0;5948;0;0;0;0;4;0;6726;0;0;0;0;5;0;25659;2;0;0;0;0;0;6;0;19598;2;0;0;0;0;0;7;0;15086;0;0;0;0;8;0;14844;0;0;0;0;9;0;8130;0;0;0;0
30.01.19;19:10:00;1;1405;12888;0;2;0;9136;0;0;0;0;3;0;5948;0;0;0;0;4;0;6726;0;0;0;0;5;0;25659;2;0;0;0;0;0;6;0;19598;2;0;0;0;0;0;7;0;15086;0;0;0;0;8;0;14844;0;0;0;0;9;0;8130;0;0;0;0
30.01.19;19:05:00;1;1988;12769;0;2;0;9136;0;0;0;0;3;0;5948;0;0;0;0;4;0;6726;0;0;0;0;5;0;25659;2;0;0;0;0;0;6;0;19598;2;0;0;0;0;0;7;0;15086;0;0;0;0;8;0;14844;0;0;0;0;9;0;8130;0;0;0;0
30.01.19;19:00:00;1;1007;12622;0;2;0;9136;0;0;0;0;3;0;5948;0;0;0;0;4;0;6726;0;0;0;0;5;0;25659;2;0;0;0;0;0;6;0;19598;2;0;0;0;0;0;7;0;15086;0;0;0;0;8;0;14844;0;0;0;0;9;0;8130;0;0;0;0
30.01.19;18:55:00;1;1199;12520;0;2;0;9136;0;0;0;0;3;0;5948;0;0;0;0;4;0;6726;0;0;0;0;5;0;25659;2;0;0;0;0;0;6;0;19598;2;0;0;0;0;0;7;0;15086;0;0;0;0;8;0;14844;0;0;0;0;9;0;8130;0;0;0;0
30.01.19;18:50:00;1;2763;12383;0;2;0;9136;0;0;0;0;3;0;5948;0;0;0;0;4;0;6726;0;0;0;0;5;0;25659;2;0;0;0;0;0;6;0;19598;2;0;0;0;0;0;7;0;15086;0;0;0;0;8;0;14844;0;0;0;0;9;0;8130;0;0;0;0
30.01.19;18:45:00;1;3500;12137;0;2;0;9136;0;0;0;0;3;0;5948;0;0;0;0;4;0;6726;0;0;0;0;5;0;25659;2;0;0;0;0;0;6;0;19598;2;0;0;0;0;0;7;0;15086;0;0;0;0;8;0;14844;0;0;0;0;9;0;8130;0;0;0;0
30.01.19;18:40:00;1;2822;11880;0;2;0;9136;0;0;0;0;3;0;5948;0;0;0;0;4;0;6726;0;0;0;0;5;0;25659;2;0;0;0;0;0;6;0;19598;2;0;0;0;0;0;7;0;15086;0;0;0;0;8;0;14844;0;0;0;0;9;0;8130;0;0;0;0
30.01.19;18:35:00;1;2876;11614;0;2;0;9136;0;0;0;0;3;0;5948;0;0;0;0;4;0;6726;0;0;0;0;5;0;25659;2;0;0;0;0;0;6;0;19598;2;0;0;0;0;0;7;0;15086;0;0;0;0;8;0;14844;0;0;0;0;9;0;8130;0;0;0;0
30.01.19;18:30:00;1;3140;11367;0;2;0;9136;0;0;0;0;3;0;5948;0;0;0;0;4;0;6726;0;0;0;0;5;0;25659;2;0;0;0;0;0;6;0;19598;2;0;0;0;0;0;7;0;15086;0;0;0;0;8;0;14844;0;0;0;0;9;0;8130;0;0;0;0
30.01.19;18:25:00;1;3314;11112;0;2;0;9136;0;0;0;0;3;0;5948;0;0;0;0;4;0;6726;0;0;0;0;5;0;25659;2;0;0;0;0;0;6;0;19598;2;0;0;0;0;0;7;0;15086;0;0;0;0;8;0;14844;0;0;0;0;9;0;8130;0;0;0;0
30.01.19;18:20:00;1;990;10826;0;2;0;9136;0;0;0;0;3;0;5948;0;0;0;0;4;0;6726;0;0;0;0;5;0;25659;2;0;0;0;0;0;6;0;19598;2;0;0;0;0;0;7;0;15086;0;0;0;0;8;0;14844;0;0;0;0;9;0;8130;0;0;0;0
30.01.19;18:15:00;1;1086;10742;0;2;0;9136;0;0;0;0;3;0;5948;0;0;0;0;4;0;6726;0;0;0;0;5;0;25659;2;0;0;0;0;0;6;0;19598;2;0;0;0;0;0;7;0;15086;0;0;0;0;8;0;14844;0;0;0;0;9;0;8130;0;0;0;0
30.01.19;18:10:00;1;849;10657;0;2;0;9136;0;0;0;0;3;0;5948;0;0;0;0;4;0;6726;0;0;0;0;5;0;25659;2;0;0;0;0;0;6;0;19598;2;0;0;0;0;0;7;0;15086;0;0;0;0;8;0;14844;0;0;0;0;9;0;8130;0;0;0;0
30.01.19;18:05:00;1;2037;10580;0;2;0;9136;0;0;0;0;3;0;5948;0;0;0;0;4;0;6726;0;0;0;0;5;0;25659;2;0;0;0;0;0;6;0;19598;2;0;0;0;0;0;7;0;15086;0;0;0;0;8;0;14844;0;0;0;0;9;0;8130;0;0;0;0
30.01.19;18:00:00;1;1043;10464;0;2;0;9136;0;0;0;0;3;0;5948;0;0;0;0;4;0;6726;0;0;0;0;5;0;25659;2;0;0;0;0;0;6;0;19598;2;0;0;0;0;0;7;0;15086;0;0;0;0;8;0;14844;0;0;0;0;9;0;8130;0;0;0;0
30.01.19;17:55:00;1;927;10378;0;2;0;9136;0;0;0;0;3;0;5948;0;0;0;0;4;0;6726;0;0;0;0;5;0;25659;2;0;0;0;0;0;6;0;19598;2;0;0;0;0;0;7;0;15086;0;0;0;0;8;0;14844;0;0;0;0;9;0;8130;0;0;0;0
30.01.19;17:50:00;1;934;10303;0;2;0;9136;0;0;0;0;3;0;5948;0;0;0;0;4;0;6726;0;0;0;0;5;0;25659;2;0;0;0;0;0;6;0;19598;2;0;0;0;0;0;7;0;15086;0;0;0;0;8;0;14844;0;0;0;0;9;0;8130;0;0;0;0
30.01.19;17:45:00;1;1819;10219;0;2;0;9136;0;0;0;0;3;0;5948;0;0;0;0;4;0;6726;0;0;0;0;5;0;25659;2;0;0;0;0;0;6;0;19598;2;0;0;0;0;0;7;0;15086;0;0;0;0;8;0;14844;0;0;0;0;9;0;8130;0;0;0;0
30.01.19;17:40:00;1;1179;10089;0;2;0;9136;0;0;0;0;3;0;5948;0;0;0;0;4;0;6726;0;0;0;0;5;0;25659;2;0;0;0;0;0;6;0;19598;2;0;0;0;0;0;7;0;15086;0;0;0;0;8;0;14844;0;0;0;0;9;0;8130;0;0;0;0
30.01.19;17:35:00;1;1082;9987;0;2;0;9136;0;0;0;0;3;0;5948;0;0;0;0;4;0;6726;0;0;0;0;5;0;25659;2;0;0;0;0;0;6;0;19598;2;0;0;0;0;0;7;0;15086;0;0;0;0;8;0;14844;0;0;0;0;9;0;8130;0;0;0;0
30.01.19;17:30:00;1;1156;9899;0;2;0;9136;0;0;0;0;3;0;5948;0;0;0;0;4;0;6726;0;0;0;0;5;0;25659;2;0;0;0;0;0;6;0;19598;2;0;0;0;0;0;7;0;15086;0;0;0;0;8;0;14844;0;0;0;0;9;0;8130;0;0;0;0
30.01.19;17:25:00;1;1815;9805;0;2;0;9136;0;0;0;0;3;0;5948;0;0;36;1;4;0;6726;0;0;0;0;5;0;25659;2;0;0;0;0;0;6;0;19598;2;0;0;0;0;0;7;0;15086;0;0;0;0;8;0;14844;0;0;0;0;9;0;8130;0;0;0;0
30.01.19;17:20:00;1;3257;9621;0;2;0;9136;0;0;191;7;3;0;5948;6;0;290;13;4;0;6726;0;0;0;0;5;0;25659;2;0;0;0;0;0;6;0;19598;0;0;0;0;0;0;7;0;15086;0;0;0;0;8;0;14844;0;0;0;0;9;0;8130;0;0;0;0
30.01.19;17:15:00;1;3355;9372;0;2;0;9136;6;0;309;10;3;0;5948;6;0;361;13;4;0;6726;2;0;74;7;5;0;25659;2;0;0;96;95;6;6;0;19598;1;0;0;0;0;0;7;0;15086;0;0;0;0;8;0;14844;0;0;0;0;9;0;8130;0;0;0;0
30.01.19;17:10:00;1;2469;9108;0;2;0;9136;6;0;351;10;3;0;5948;6;0;419;13;4;0;6726;1;0;114;7;5;0;25659;2;0;0;319;317;20;6;0;19598;23;9;0;180;455;19;7;0;15086;0;0;85;4;8;0;14844;0;0;86;3;9;0;8130;0;0;180;5
30.01.19;17:05:00;1;2470;8904;0;2;0;9136;6;0;379;10;3;0;5948;6;2;455;13;4;0;6726;1;0;156;7;5;0;25659;23;0;1;413;471;21;6;0;19598;23;10;0;181;544;20;7;0;15086;6;0;307;12;8;0;14844;6;0;311;12;9;0;8130;6;0;329;8
30.01.19;17:00:00;1;2280;8709;0;2;0;9136;6;4;397;10;3;0;5948;6;2;491;13;4;0;6726;1;0;212;8;5;21;25659;26;1;8;420;659;21;6;0;19598;23;10;0;324;585;20;7;0;15086;6;0;398;12;8;0;14844;6;0;392;12;9;0;8130;6;0;428;9
30.01.19;16:55:00;1;3474;8531;0;2;4;9136;6;10;412;11;3;4;5948;3;12;488;14;4;0;6726;3;0;207;8;5;96;25657;4;16;25;396;629;22;6;37;19598;1;29;14;501;299;21;7;0;15086;6;2;453;13;8;1;14844;6;2;455;12;9;0;8130;6;0;527;9
30.01.19;16:50:00;1;4097;8216;0;2;29;9136;6;48;387;11;3;3;5947;6;8;539;14;4;5;6726;3;5;199;9;5;140;25648;4;42;44;396;629;22;6;66;19595;4;41;21;473;224;21;7;2;15086;6;7;482;13;8;0;14844;6;7;488;13;9;4;8130;4;8;511;9
30.01.19;16:45:00;1;4213;7839;0;2;70;9134;4;100;366;11;3;14;5947;6;26;513;14;4;31;6725;3;32;198;9;5;193;25636;4;74;79;396;629;22;6;93;19589;4;69;37;473;223;21;7;38;15086;6;62;425;13;8;35;14844;6;60;430;13;9;7;8130;3;17;521;9
30.01.19;16:40:00;1;2763;7515;0;2;106;9128;4;139;373;11;3;41;5946;6;66;517;14;4;53;6723;3;55;198;9;5;261;25620;4;108;96;396;629;22;6;119;19581;4;81;40;473;224;21;7;82;15083;4;117;433;13;8;80;14841;4;114;459;13;9;8;8129;6;11;568;9
30.01.19;16:35:00;1;3051;7259;0;2;140;9119;4;173;384;11;3;77;5943;4;112;455;14;4;87;6718;3;91;210;9;5;311;25598;4;139;127;396;629;22;6;151;19571;4;113;55;473;224;21;7;120;15076;4;158;433;13;8;120;14834;4;156;438;13;9;40;8129;6;56;533;10
30.01.19;16:30:00;1;919;7030;0;2;159;9108;4;193;389;11;3;93;5937;4;133;484;14;4;108;6711;5;112;235;9;5;351;25572;4;162;143;396;629;22;6;173;19558;4;148;76;472;224;21;7;152;15066;4;189;445;14;8;145;14824;4;188;447;13;9;79;8126;4;109;497;10
30.01.19;16:25:00;1;1583;6947;0;2;175;9094;4;212;393;11;3;103;5929;4;142;504;14;4;124;6702;5;129;231;9;5;381;25542;4;178;154;397;629;22;6;190;19543;4;110;61;473;245;21;7;171;15054;4;207;449;14;8;167;14812;4;199;424;13;9;89;8119;4;118;498;10
30.01.19;16:20:00;1;488;6848;0;2;208;9080;4;243;389;11;3;117;5920;4;163;528;14;4;157;6692;5;164;231;9;5;445;25510;4;209;183;401;649;22;6;297;19527;4;151;155;494;493;21;7;209;15040;4;238;437;14;8;203;14798;4;238;442;13;9;108;8112;4;137;510;10
30.01.19;16:15:00;1;763;6809;0;2;256;9063;4;297;397;11;3;153;5910;4;194;525;14;4;201;6679;5;209;239;10;5;516;25473;4;258;215;405;609;22;6;396;19502;4;222;236;578;563;21;7;264;15022;4;300;463;14;8;258;14781;4;296;482;14;9;137;8103;4;170;521;11
30.01.19;16:10:00;1;653;6744;0;2;314;9041;4;354;405;11;3;190;5898;4;236;515;14;4;251;6662;5;261;237;10;5;629;25429;4;307;267;418;684;22;6;478;19468;4;254;260;587;570;21;7;330;15000;4;373;478;14;8;332;14760;4;375;482;14;9;177;8091;4;208;525;11
30.01.19;16:05:00;1;845;6708;0;2;338;9015;4;378;406;12;3;206;5882;4;249;506;14;4;270;6641;5;281;236;10;5;671;25376;4;327;281;414;684;22;6;499;19428;4;269;282;578;572;21;7;360;14973;4;411;482;14;8;356;14733;4;403;500;14;9;197;8077;4;231;535;11
30.01.19;16:00:00;1;1249;6657;0;2;377;8987;4;422;408;12;3;233;5865;4;276;511;14;4;306;6619;5;319;239;10;5;741;25319;4;362;315;418;674;23;6;563;19386;4;300;305;594;572;21;7;409;14943;4;455;467;14;8;394;14703;4;445;492;14;9;216;8060;4;251;518;11
30.01.19;15:55:00;1;444;6572;0;2;446;8956;4;492;406;12;3;273;5845;4;321;526;14;4;356;6594;5;371;242;10;5;853;25257;4;424;366;414;693;23;6;644;19339;4;327;330;594;572;22;7;496;14909;4;542;484;14;8;488;14670;4;537;461;14;9;260;8042;4;298;526;11
30.01.19;15:50:00;1;580;6524;0;2;504;8919;4;550;409;12;3;307;5823;4;355;539;15;4;377;6564;5;393;247;10;5;935;25184;4;461;395;429;684;23;6;697;19285;4;337;341;599;573;22;7;566;14868;4;615;482;14;8;561;14630;4;604;483;14;9;276;8021;4;312;545;11
30.01.19;15:45:00;1;328;6471;0;2;435;8877;4;478;409;12;3;269;5797;4;317;525;15;4;340;6533;5;354;241;10;5;858;25107;4;430;369;430;700;23;6;654;19226;4;284;287;596;576;22;7;503;14821;4;560;487;14;8;508;14584;4;560;478;14;9;247;7998;4;282;528;12
30.01.19;15:40:00;1;331;6443;0;2;404;8840;4;447;403;12;3;249;5774;4;293;513;15;4;331;6504;5;345;240;11;5;828;25035;4;409;357;416;682;23;6;631;19172;4;306;311;592;566;22;7;429;14778;4;468;487;15;8;411;14540;4;462;496;14;9;225;7977;4;259;525;12
30.01.19;15:35:00;1;629;6415;0;2;442;8806;4;486;404;12;3;271;5754;4;319;522;15;4;367;6476;5;382;239;11;5;901;24965;4;448;385;420;700;23;6;679;19119;4;351;356;597;572;22;7;462;14742;4;499;470;15;8;465;14506;4;509;485;14;9;252;7959;4;284;526;12
30.01.19;15:30:00;1;276;6367;0;2;490;8769;4;534;412;13;3;300;5731;4;351;526;15;4;413;6446;5;430;243;11;5;990;24889;4;493;423;425;681;23;6;752;19062;4;382;384;601;574;22;7;518;14704;4;561;464;15;8;517;14467;4;563;465;14;9;276;7938;4;316;530;12
30.01.19;15:25:00;1;507;6343;0;2;496;8729;4;546;408;13;3;308;5706;4;355;519;15;4;419;6411;5;436;241;11;5;1010;24806;4;506;432;420;680;23;6;765;18999;4;340;345;592;568;22;7;547;14661;4;587;473;15;8;541;14425;4;591;480;15;9;290;7915;4;330;531;12
30.01.19;15:20:00;1;214;6301;0;2;532;8687;4;582;408;13;3;327;5680;4;378;515;15;4;445;6376;5;464;242;11;5;1094;24722;4;543;463;425;688;23;6;816;18936;4;408;411;597;573;22;7;556;14616;4;596;465;15;8;548;14379;4;599;479;15;9;292;7890;4;334;526;12
30.01.19;15:15:00;1;494;6283;0;2;607;8643;4;657;411;13;3;378;5653;4;429;514;15;4;520;6339;5;542;244;11;5;1246;24631;4;633;532;430;699;23;6;944;18867;4;487;480;601;574;22;7;651;14569;4;704;487;15;8;653;14333;4;704;490;15;9;350;7866;4;392;538;12
30.01.19;15:10:00;1;213;6242;0;2;578;8593;4;629;405;13;3;362;5622;4;414;527;16;4;493;6296;5;514;244;11;5;1181;24527;4;608;506;422;689;23;6;907;18789;4;474;463;599;578;22;7;628;14515;4;690;489;15;8;643;14279;4;697;488;15;9;342;7837;4;384;530;13
30.01.19;15:05:00;1;528;6224;0;2;634;8544;4;687;408;14;3;396;5592;4;451;527;16;4;545;6255;5;567;243;12;5;1293;24428;4;657;555;432;695;23;6;973;18714;4;501;498;600;574;22;7;683;14463;4;725;485;16;8;678;14225;4;730;477;15;9;361;7809;4;405;539;13
30.01.19;15:00:00;1;255;6179;0;2;723;8492;4;781;419;14;3;454;5559;4;507;526;16;4;629;6210;5;655;246;12;5;1470;24320;4;743;629;430;707;23;6;1103;18632;4;566;553;604;576;22;7;782;14406;4;833;480;16;8;784;14169;4;834;491;15;9;417;7779;4;463;538;13
30.01.19;14:55:00;1;259;6158;0;2;745;8432;4;803;419;14;3;471;5521;4;526;522;16;4;649;6158;5;676;245;12;5;1524;24198;4;772;656;432;704;24;6;1144;18539;4;571;566;605;581;22;7;825;14341;4;880;492;16;8;813;14104;4;871;482;15;9;442;7744;4;490;542;13
30.01.19;14:50:00;1;452;6131;0;2;761;8370;4;816;414;14;3;481;5482;4;533;527;16;4;662;6103;5;689;249;12;5;1542;24072;4;795;669;436;702;24;6;1175;18443;4;598;595;600;577;22;7;861;14273;4;909;488;16;8;850;14036;4;899;491;16;9;456;7707;4;506;539;13
30.01.19;14:45:00;1;213;6094;0;2;797;8306;4;855;414;15;3;502;5442;4;558;523;16;4;700;6048;5;729;245;12;5;1651;23942;4;852;713;429;708;24;6;1249;18345;4;629;610;604;579;22;7;912;14201;4;963;493;16;8;903;13965;4;960;487;16;9;485;7669;4;536;542;14
30.01.19;14:40:00;1;452;6077;0;2;790;8240;4;846;414;15;3;498;5400;4;554;519;16;4;698;5990;5;727;246;13;5;1652;23804;4;846;718;434;705;24;6;1256;18241;4;641;630;606;580;22;7;911;14125;4;965;485;16;8;905;13890;4;966;488;16;9;490;7629;4;539;532;14
30.01.19;14:35:00;1;213;6035;0;2;772;8174;4;829;410;15;3;485;5358;4;541;530;17;4;681;5932;5;710;247;13;5;1630;23667;4;844;708;427;691;24;6;1233;18136;4;640;628;603;576;22;7;880;14049;4;936;491;17;8;880;13815;4;938;490;16;9;473;7588;4;522;534;14
30.01.19;14:30:00;1;684;6017;0;2;866;8109;4;925;409;15;3;545;5318;4;604;524;17;4;771;5875;5;803;245;13;5;1840;23530;4;950;801;436;700;24;6;1391;18033;4;719;697;604;580;22;7;974;13975;4;1046;487;17;8;983;13741;4;1037;485;16;9;528;7548;4;577;537;14
30.01.19;14:25:00;1;214;5974;0;2;920;8038;4;981;411;16;3;582;5273;4;640;538;17;4;828;5811;5;863;244;13;5;1970;23376;4;1013;853;430;703;24;6;1485;17916;4;770;758;606;579;22;7;1094;13895;4;1162;481;17;8;1090;13660;4;1161;492;17;9;594;7505;4;647;544;14
30.01.19;14:20:00;1;456;5956;0;2;907;7961;4;967;408;16;3;573;5224;4;635;530;17;4;806;5742;5;840;245;13;5;1879;23214;4;985;817;433;716;24;6;1427;17793;4;717;713;600;578;23;7;1073;13804;4;1131;488;17;8;1069;13569;4;1124;483;17;9;576;7455;4;629;536;14
30.01.19;14:15:00;1;217;5914;0;2;991;7886;4;1054;408;16;3;627;5177;4;690;533;17;4;875;5675;5;911;241;13;5;2028;23057;4;1047;879;434;697;25;6;1539;17674;4;810;787;607;578;23;7;1129;13715;4;1191;492;17;8;1124;13480;4;1195;491;17;9;607;7407;4;659;533;15
30.01.19;14:10:00;1;489;5896;0;2;1031;7803;4;1096;412;17;3;653;5125;4;716;535;18;4;915;5602;5;953;247;14;5;2109;22887;4;1114;916;439;710;25;6;1609;17545;4;866;844;599;577;23;7;1196;13621;4;1263;486;17;8;1193;13386;4;1265;487;17;9;646;7357;4;703;546;15